This demonstration page uses our WeatherBlox Daily Observations layout. Learn more.

Hourly Observations for July 19, 2017

Temp ( °F °C ) Dew Point ( °F °C ) Humidity (%) Winds ( mph kmh ) Pressure ( in mb ) Visibility ( mi km ) Precip ( " mm )
12:53 am 00:53 Clear with Mist and Fog 72 22.2 71 21.7 97 97 Calm 30.08 1019 6 9.65604 0 0
1:53 am 01:53 Clear with Mist and Fog 71 21.7 71 21.7 100 100 Calm 30.07 1018 5 8.0467 0 0
2:53 am 02:53 Clear with Mist and Fog 71 21.7 71 21.7 100 100 Calm 30.07 1018 5 8.0467 0 0
3:53 am 03:53 Mostly Clear with Mist and Fog 70 21.1 69 20.6 97 97 Calm 30.07 1018 4 6.43736 0 0
4:53 am 04:53 Mostly Clear with Mist and Fog 70 21.1 70 21.1 100 100 Calm 30.08 1019 4 6.43736 0 0
5:53 am 05:53 Clear with Mist and Fog 69 20.6 69 20.6 100 100 W 3 6 30.09 1019 2.5 4.02335 0 0
6:53 am 06:53 Sunny with Mist and Fog 69 20.6 69 20.6 100 100 Calm 30.09 1019 2.5 4.02335 0 0
7:37 am 07:37 Sunny with Mist and Fog 71 21.7 71 21.7 100 100 SSW 3 6 30.09 1019 3 4.82802 0 0
7:53 am 07:53 Sunny with Mist and Fog 73 22.8 71 21.7 94 94 Calm 30.11 1020 4 6.43736 0 0
8:53 am 08:53 Sunny with Mist and Fog 75 23.9 71 21.7 88 88 Calm 30.12 1020 6 9.65604 0 0
9:53 am 09:53 Sunny 80 26.7 71 21.7 74 74 N 5 7 30.12 1020 9 14.48406 0 0
10:53 am 10:53 Mostly Sunny 83 28.3 71 21.7 67 67 N 5 7 30.12 1020 10 16.0934 0 0
11:53 am 11:53 Sunny 85 29.4 71 21.7 63 63 N 7 11 30.12 1020 10 16.0934 0 0
12:53 pm 12:53 Partly Cloudy 86 30 71 21.7 61 61 NW 10 17 30.12 1020 10 16.0934 0 0
1:53 pm 13:53 Mostly Cloudy 86 30 70 21.1 59 59 NW 7 11 30.11 1020 10 16.0934 0 0
2:53 pm 14:53 Mostly Cloudy 87 30.6 70 21.1 57 57 N 5 7 30.1 1019 9 14.48406 0 0
3:53 pm 15:53 Mostly Sunny 89 31.7 69 20.6 52 52 N 6 9 30.08 1019 10 16.0934 0 0
4:53 pm 16:53 Partly Cloudy 89 31.7 68 20 50 50 W 8 13 30.07 1018 10 16.0934 0 0
5:53 pm 17:53 Sunny 88 31.1 69 20.6 54 54 W 9 15 30.08 1019 10 16.0934 0 0
6:53 pm 18:53 Sunny 87 30.6 67 19.4 51 51 N 7 11 30.07 1018 10 16.0934 0 0
7:53 pm 19:53 Sunny 85 29.4 70 21.1 61 61 N 3 6 30.07 1018 10 16.0934 0 0
8:53 pm 20:53 Sunny 76 24.4 71 21.7 85 85 Calm 30.07 1018 10 16.0934 0 0
9:53 pm 21:53 Clear 72 22.2 69 20.6 91 91 Calm 30.07 1018 9 14.48406 0 0
10:53 pm 22:53 Clear 71 21.7 69 20.6 94 94 Calm 30.09 1019 10 16.0934 0 0
11:53 pm 23:53 Clear 71 21.7 70 21.1 96 96 Calm 30.09 1019 9 14.48406 0 0

Powered by AerisWeather